DW1564 Weather Reports


Display with metric or nautical units.
time (UTC)temp
F
wind
direction
speed
MPH
gust
MPH
rain 1hr
in
rain 24hr
in
rain mn
in
humidity
%
barometer
mb
20210917160115 48 145 0.0 0.0 0.00 0.00 0.00 68 1010.0
20210917154551 46 145 0.0 0.0 0.00 0.00 0.00 72 1010.0
20210917153047 44 145 0.0 0.0 0.00 0.00 0.00 75 1009.9
20210917151510 42 145 0.0 0.0 0.00 0.00 0.00 80 1009.8
20210917150007 40 145 0.0 0.0 0.00 0.00 0.00 83 1009.8
20210917143048 39 145 0.0 0.0 0.00 0.00 0.00 84 1009.3
20210917141600 38 145 0.0 0.0 0.00 0.00 0.00 85 1009.3
20210917140107 38 145 0.0 0.0 0.00 0.00 0.00 84 1009.0
20210917134520 38 145 0.0 0.0 0.00 0.00 0.00 83 1008.8
20210917133141 38 145 0.0 0.0 0.00 0.00 0.00 80 1008.5
20210917131602 39 145 0.0 0.0 0.00 0.00 0.00 78 1008.3
20210917130049 39 145 0.0 0.0 0.00 0.00 0.00 77 1008.1
20210917124553 41 145 0.0 0.0 0.00 0.00 0.00 76 1007.6
20210917123010 42 145 0.0 0.0 0.00 0.00 0.00 76 1007.3
20210917121518 42 145 0.0 0.0 0.00 0.00 0.00 76 1006.8
20210917120105 43 145 0.0 0.0 0.00 0.00 0.00 75 1006.7
20210917114629 43 145 0.0 0.0 0.00 0.00 0.00 74 1006.5
20210917113041 43 145 0.0 0.0 0.00 0.00 0.00 74 1006.4
20210917111539 44 145 0.0 0.0 0.00 0.00 0.00 72 1006.2
20210917110042 44 145 0.0 0.0 0.00 0.00 0.00 73 1006.2
20210917104645 44 145 0.0 0.0 0.00 0.00 0.00 73 1005.9
20210917103050 45 145 0.0 0.0 0.00 0.00 0.00 72 1005.8
20210917101529 45 145 0.0 0.0 0.00 0.00 0.00 71 1005.8
20210917100026 46 145 0.0 0.0 0.00 0.00 0.00 68 1005.8
20210917094530 47 145 0.0 0.0 0.00 0.00 0.00 65 1005.5
20210917093121 47 145 0.0 0.0 0.00 0.00 0.00 64 1005.3
20210917091602 48 145 0.0 0.0 0.00 0.00 0.00 62 1005.0
20210917090040 49 145 0.0 0.0 0.00 0.00 0.00 57 1004.9
20210917084542 50 145 0.0 2.0 0.00 0.00 0.00 56 1004.9
20210917083008 51 145 0.0 0.0 0.00 0.00 0.00 53 1004.6
20210917081519 51 145 0.0 1.0 0.00 0.00 0.00 52 1004.5
20210917080314 53 145 0.0 2.0 0.00 0.00 0.00 48 1004.6
20210917074610 55 145 1.0 7.0 0.00 0.00 0.00 41 1004.3
20210917073023 57 145 0.0 3.0 0.00 0.00 0.00 28 1003.7
20210917071516 58 145 0.0 4.0 0.00 0.00 0.00 27 1002.8
20210917070114 58 146 0.0 0.0 0.00 0.00 0.00 26 1002.0
20210917064627 58 146 0.0 1.0 0.00 0.00 0.00 26 1001.7
20210917063040 58 146 0.0 0.0 0.00 0.00 0.00 26 1001.5
20210917061624 58 146 0.0 0.0 0.00 0.00 0.00 26 1001.5
20210917060018 58 146 0.0 0.0 0.00 0.00 0.00 26 1001.3
20210917054516 59 146 0.0 1.0 0.00 0.00 0.00 25 1001.0
20210917053137 59 146 0.0 2.0 0.00 0.00 0.00 25 1000.9
20210917051636 59 146 0.0 1.0 0.00 0.00 0.00 25 1000.7
20210917050037 59 146 0.0 0.0 0.00 0.00 0.00 23 1000.6
20210917044547 60 146 0.0 0.0 0.00 0.00 0.00 22 1000.4
20210917043019 60 146 0.0 0.0 0.00 0.00 0.00 23 1000.2
20210917041518 60 146 0.0 0.0 0.00 0.00 0.00 23 1000.1
20210917040129 60 146 0.0 0.0 0.00 0.00 0.00 22 1000.1
20210917034652 61 146 0.0 0.0 0.00 0.00 0.00 22 1000.1
20210917033100 61 146 0.0 0.0 0.00 0.00 0.00 21 999.9
20210917031628 61 146 0.0 0.0 0.00 0.00 0.00 21 999.8
20210917030022 62 146 0.0 0.0 0.00 0.00 0.00 21 999.7
20210917024612 62 146 0.0 0.0 0.00 0.00 0.00 21 999.7
20210917023012 63 146 0.0 0.0 0.00 0.00 0.00 20 999.6
20210917021503 64 146 0.0 0.0 0.00 0.00 0.00 20 999.2
20210917020108 65 146 0.0 0.0 0.00 0.00 0.00 19 998.8
20210917014546 66 146 0.0 1.0 0.00 0.00 0.00 18 998.5
20210917013032 67 146 0.0 0.0 0.00 0.00 0.00 18 998.4
20210917011553 68 146 0.0 0.0 0.00 0.00 0.00 17 998.2
20210917010008 69 146 0.0 0.0 0.00 0.00 0.00 16 998.1
20210917004507 71 146 0.0 1.0 0.00 0.00 0.00 16 998.0
20210917003143 72 146 0.0 3.0 0.00 0.00 0.00 15 997.8
20210917001712 74 147 0.0 3.0 0.00 0.00 0.00 14 997.5
20210917000129 75 146 0.0 4.0 0.00 0.00 0.00 14 997.3
20210916234604 77 146 0.0 2.0 0.00 0.00 0.00 15 997.1
20210916233018 77 146 0.0 3.0 0.00 0.00 0.00 14 996.9
20210916231520 77 146 0.0 3.0 0.00 0.00 0.00 15 996.7
20210916230210 76 146 0.0 5.0 0.00 0.00 0.00 15 996.5
20210916224617 78 146 0.0 5.0 0.00 0.00 0.00 14 996.3
20210916223037 80 149 0.0 4.0 0.00 0.00 0.00 13 996.2
20210916221547 78 149 0.0 8.0 0.00 0.00 0.00 14 996.2
20210916220037 79 171 0.0 4.0 0.00 0.00 0.00 13 996.2
20210916214539 77 180 0.0 11.0 0.00 0.00 0.00 14 996.0
20210916213017 75 224 0.0 1.0 0.00 0.00 0.00 14 996.2
20210916211525 74 224 0.0 1.0 0.00 0.00 0.00 14 996.2
20210916210049 76 192 3.0 8.0 0.00 0.00 0.00 12 995.8
20210916204530 77 165 0.0 3.0 0.00 0.00 0.00 14 995.6
20210916203018 77 163 0.0 9.0 0.00 0.00 0.00 12 996.1
20210916201522 78 177 0.0 7.0 0.00 0.00 0.00 13 996.0
20210916200213 77 179 2.0 14.0 0.00 0.00 0.00 12 996.4
20210916194618 77 144 3.0 10.0 0.00 0.00 0.00 13 996.4
20210916193131 77 9 0.0 13.0 0.00 0.00 0.00 13 996.8
20210916191615 78 350 1.0 7.0 0.00 0.00 0.00 13 997.0
20210916190012 79 327 0.0 3.0 0.00 0.00 0.00 12 997.2
20210916184520 77 340 1.0 5.0 0.00 0.00 0.00 13 997.5
20210916183106 76 343 1.0 4.0 0.00 0.00 0.00 14 997.6
20210916181625 74 360 1.0 14.0 0.00 0.00 0.00 15 997.9
20210916180037 73 181 4.0 15.0 0.00 0.00 0.00 14 998.2
20210916174517 74 144 1.0 14.0 0.00 0.00 0.00 14 998.0
20210916171601 73 281 1.0 8.0 0.00 0.00 0.00 15 998.7
20210916170109 72 307 0.0 7.0 0.00 0.00 0.00 15 998.9
20210916164534 72 232 0.0 3.0 0.00 0.00 0.00 15 999.1
20210916163039 72 215 0.0 6.0 0.00 0.00 0.00 17 999.4